When you browse on this site, cookies collect data to enhance your experience and personalize the content and advertising you see.
Visit our Privacy Policy to learn more. By continuing to use the site, you agree to this use of cookies and data.
  • In France
  • List of Countries
  • For 7 days
  • Water Temperature
  • Weather Map
  • Weather Widgets
  • user-avatar
    Login

    Hourly Weather Northampton

    Today, 18 January, Saturday

    Time Temperature Precipitation Wind Pressure Humidity
    00:00 0°C° 0 mm 4 mps 755 mmHg 88%
    01:00 0°C° 0 mm 4 mps 756 mmHg 89%
    02:00 0°C° 0 mm 4 mps 756 mmHg 89%
    03:00 0°C° 0 mm 4 mps 757 mmHg 89%
    04:00 0°C° 0 mm 4 mps 757 mmHg 89%
    05:00 -1°C° 0 mm 4 mps 758 mmHg 89%
    06:00 0°C° 0 mm 3 mps 758 mmHg 89%
    07:00 0°C° 0 mm 3 mps 759 mmHg 89%
    08:00 -1°C° 0 mm 4 mps 759 mmHg 89%
    09:00 -1°C° 0 mm 4 mps 760 mmHg 89%
    10:00 0°C° 0 mm 4 mps 761 mmHg 85%
    11:00 +3°C° 0 mm 4 mps 761 mmHg 81%
    12:00 +4°C° 0 mm 4 mps 762 mmHg 77%
    13:00 +4°C° 0 mm 4 mps 762 mmHg 78%
    14:00 +4°C° 0 mm 3 mps 762 mmHg 80%
    15:00 +4°C° 0 mm 3 mps 763 mmHg 82%
    16:00 +3°C° 0 mm 3 mps 763 mmHg 83%
    17:00 +2°C° 0 mm 3 mps 764 mmHg 85%
    18:00 +1°C° 0 mm 3 mps 765 mmHg 86%
    19:00 +1°C° 0 mm 3 mps 765 mmHg 87%
    20:00 +1°C° 0 mm 3 mps 766 mmHg 89%
    21:00 +1°C° 0 mm 3 mps 766 mmHg 90%
    22:00 0°C° 0 mm 3 mps 767 mmHg 90%
    23:00 0°C° 0 mm 3 mps 768 mmHg 90%

    Tomorrow, 19 January, Sunday

    Time Temperature Precipitation Wind Pressure Humidity
    00:00 0°C° 0 mm 3 mps 769 mmHg 91%
    01:00 0°C° 0 mm 3 mps 769 mmHg 90%
    02:00 -1°C° 0 mm 3 mps 769 mmHg 90%
    03:00 -1°C° 0 mm 2 mps 770 mmHg 89%
    04:00 -1°C° 0 mm 2 mps 770 mmHg 88%
    05:00 -1°C° 0 mm 2 mps 771 mmHg 87%
    06:00 -1°C° 0 mm 2 mps 771 mmHg 86%
    07:00 -1°C° 0 mm 2 mps 772 mmHg 85%
    08:00 -1°C° 0 mm 2 mps 773 mmHg 84%
    09:00 +1°C° 0 mm 2 mps 773 mmHg 83%
    10:00 +2°C° 0 mm 2 mps 774 mmHg 80%
    11:00 +4°C° 0 mm 2 mps 775 mmHg 76%
    12:00 +5°C° 0 mm 2 mps 775 mmHg 72%
    13:00 +5°C° 0 mm 2 mps 775 mmHg 74%
    14:00 +5°C° 0 mm 2 mps 775 mmHg 76%
    15:00 +6°C° 0 mm 1 mps 775 mmHg 78%
    16:00 +5°C° 0 mm 1 mps 775 mmHg 81%
    17:00 +2°C° 0 mm 2 mps 776 mmHg 84%
    18:00 +1°C° 0 mm 2 mps 776 mmHg 87%
    19:00 +2°C° 0 mm 1 mps 776 mmHg 87%
    20:00 +2°C° 0 mm 1 mps 776 mmHg 87%
    21:00 +2°C° 0 mm 1 mps 777 mmHg 86%
    22:00 +2°C° 0 mm 1 mps 777 mmHg 85%
    23:00 +2°C° 0 mm 1 mps 777 mmHg 85%

    Day after tomorrow, 20 January, Monday

    Time Temperature Precipitation Wind Pressure Humidity
    00:00 +2°C° 0 mm 1 mps 777 mmHg 84%
    01:00 +1°C° 0 mm 1 mps 777 mmHg 83%
    02:00 +1°C° 0 mm 1 mps 777 mmHg 83%
    03:00 -1°C° 0 mm 2 mps 777 mmHg 82%
    04:00 +1°C° 0 mm 1 mps 777 mmHg 81%
    05:00 +1°C° 0 mm 1 mps 777 mmHg 80%
    06:00 +1°C° 0 mm 1 mps 776 mmHg 79%
    07:00 +2°C° 0 mm 1 mps 776 mmHg 77%
    08:00 +2°C° 0 mm 1 mps 777 mmHg 76%
    09:00 +2°C° 0 mm 1 mps 777 mmHg 74%
    10:00 +4°C° 0 mm 1 mps 777 mmHg 70%
    11:00 +5°C° 0 mm 1 mps 776 mmHg 66%
    12:00 +6°C° 0 mm 1 mps 776 mmHg 63%
    13:00 +6°C° 0 mm 1 mps 776 mmHg 66%
    14:00 +6°C° 0 mm 1 mps 776 mmHg 69%
    15:00 +6°C° 0 mm 1 mps 775 mmHg 73%
    16:00 +5°C° 0 mm 1 mps 775 mmHg 74%
    17:00 +4°C° 0 mm 1 mps 775 mmHg 76%
    18:00 +2°C° 0 mm 1 mps 775 mmHg 77%
    19:00 +2°C° 0 mm 1 mps 775 mmHg 76%
    20:00 +2°C° 0 mm 1 mps 775 mmHg 74%
    21:00 +2°C° 0 mm 1 mps 775 mmHg 72%
    22:00 +2°C° 0 mm 1 mps 775 mmHg 72%
    23:00 +2°C° 0 mm 1 mps 775 mmHg 72%

    21 January, Tuesday

    Time Temperature Precipitation Wind Pressure Humidity
    00:00 +1°C° 0 mm 2 mps 775 mmHg 71%
    01:00 +1°C° 0 mm 2 mps 774 mmHg 71%
    02:00 +1°C° 0 mm 2 mps 774 mmHg 71%
    03:00 +1°C° 0 mm 2 mps 774 mmHg 71%
    04:00 +1°C° 0 mm 2 mps 774 mmHg 71%
    05:00 -1°C° 0 mm 2 mps 773 mmHg 71%
    06:00 -1°C° 0 mm 2 mps 773 mmHg 71%
    07:00 +1°C° 0 mm 2 mps 773 mmHg 72%
    08:00 +1°C° 0 mm 2 mps 773 mmHg 73%
    09:00 +1°C° 0 mm 2 mps 773 mmHg 74%
    10:00 +2°C° 0 mm 2 mps 773 mmHg 75%
    11:00 +2°C° 0 mm 3 mps 773 mmHg 77%
    12:00 +4°C° 0 mm 3 mps 773 mmHg 79%
    13:00 +4°C° 0 mm 3 mps 773 mmHg 82%
    14:00 +4°C° 0 mm 3 mps 772 mmHg 84%
    15:00 +5°C° 0 mm 2 mps 772 mmHg 86%
    16:00 +4°C° 0 mm 2 mps 772 mmHg 89%
    17:00 +2°C° 0 mm 2 mps 772 mmHg 91%
    18:00 +1°C° 0 mm 2 mps 771 mmHg 94%
    19:00 +1°C° 0 mm 2 mps 771 mmHg 94%
    20:00 +2°C° 0 mm 1 mps 772 mmHg 94%
    21:00 +2°C° 0 mm 1 mps 772 mmHg 94%
    22:00 +2°C° 0 mm 1 mps 771 mmHg 94%
    23:00 +2°C° 0 mm 1 mps 771 mmHg 94%

    22 January, Wednesday

    Time Temperature Precipitation Wind Pressure Humidity
    00:00 +2°C° 0 mm 1 mps 771 mmHg 95%
    01:00 +2°C° 0 mm 1 mps 771 mmHg 95%
    02:00 +1°C° 0 mm 2 mps 771 mmHg 96%
    03:00 +1°C° 0 mm 2 mps 771 mmHg 97%
    04:00 +1°C° 0 mm 2 mps 771 mmHg 97%
    05:00 +2°C° 0 mm 2 mps 770 mmHg 98%
    06:00 +3°C° 0 mm 1 mps 770 mmHg 98%
    07:00 +4°C° 0 mm 1 mps 770 mmHg 98%
    08:00 +4°C° 0 mm 1 mps 770 mmHg 98%
    09:00 +5°C° 0 mm 1 mps 770 mmHg 98%
    10:00 +5°C° 0 mm 2 mps 770 mmHg 97%
    11:00 +5°C° 0 mm 2 mps 770 mmHg 95%
    12:00 +6°C° 0 mm 2 mps 770 mmHg 94%
    13:00 +6°C° 0 mm 2 mps 770 mmHg 95%
    14:00 +6°C° 0 mm 2 mps 769 mmHg 95%
    15:00 +6°C° 0 mm 2 mps 769 mmHg 96%
    16:00 +6°C° 0 mm 2 mps 769 mmHg 97%
    17:00 +5°C° 0 mm 2 mps 769 mmHg 97%
    18:00 +5°C° 0 mm 2 mps 769 mmHg 98%
    19:00 +5°C° 0 mm 2 mps 769 mmHg 98%
    20:00 +5°C° 0 mm 2 mps 769 mmHg 98%
    21:00 +5°C° 0 mm 2 mps 769 mmHg 98%
    22:00 +5°C° 0 mm 2 mps 769 mmHg 97%
    23:00 +5°C° 0 mm 2 mps 768 mmHg 97%

    23 January, Thursday

    Time Temperature Precipitation Wind Pressure Humidity
    00:00 +3°C° 0 mm 3 mps 768 mmHg 96%
    01:00 +3°C° 0 mm 3 mps 768 mmHg 96%
    02:00 +2°C° 0 mm 3 mps 768 mmHg 96%
    03:00 +2°C° 0 mm 3 mps 767 mmHg 97%
    04:00 +1°C° 0 mm 3 mps 767 mmHg 96%
    05:00 +2°C° 0 mm 2 mps 767 mmHg 96%
    06:00 +1°C° 0 mm 2 mps 766 mmHg 96%
    07:00 +1°C° 0 mm 2 mps 766 mmHg 96%
    08:00 0°C° 0 mm 3 mps 766 mmHg 96%
    09:00 0°C° 0 mm 3 mps 766 mmHg 96%
    10:00 +2°C° 0 mm 3 mps 766 mmHg 92%
    11:00 +3°C° 0 mm 4 mps 766 mmHg 87%
    12:00 +4°C° 0 mm 4 mps 766 mmHg 83%
    13:00 +4°C° 0 mm 4 mps 765 mmHg 82%
    14:00 +4°C° 0 mm 4 mps 765 mmHg 81%
    15:00 +4°C° 0 mm 4 mps 764 mmHg 81%
    16:00 +3°C° 0 mm 4 mps 764 mmHg 85%
    17:00 +2°C° 0 mm 3 mps 764 mmHg 89%
    18:00 +1°C° 0 mm 3 mps 764 mmHg 93%
    19:00 +1°C° 0 mm 3 mps 764 mmHg 94%
    20:00 0°C° 0 mm 3 mps 763 mmHg 94%
    21:00 0°C° 0 mm 3 mps 763 mmHg 95%
    22:00 0°C° 0 mm 3 mps 763 mmHg 96%
    23:00 -1°C° 0 mm 2 mps 763 mmHg 96%
    Show more